Time,TemperatureF,DewpointF,PressureIn,WindDirection,WindDirectionDegrees,WindSpeedMPH,WindSpeedGustMPH,Humidity,HourlyPrecipIn,Conditions,Clouds,dailyrainin,SoftwareType,DateUTC
2015-03-26 00:03:00,54.7,51.2,30.10,SSW,209,5.8,5.8,88,0.00,CLR,,0.00,WeatherDisplay:10.37,2015-03-26 04:03:00,
2015-03-26 00:08:00,54.5,51.0,30.10,SE,132,3.5,3.5,88,0.00,CLR,,0.00,WeatherDisplay:10.37,2015-03-26 04:08:00,
2015-03-26 00:13:00,54.5,51.0,30.09,SSE,150,9.2,9.2,88,0.00,CLR,,0.00,WeatherDisplay:10.37,2015-03-26 04:13:00,
2015-03-26 00:18:00,54.5,51.3,30.09,SSW,200,8.1,8.1,89,0.00,CLR,,0.00,WeatherDisplay:10.37,2015-03-26 04:18:00,
2015-03-26 00:23:00,54.5,51.3,30.09,SSW,200,2.3,2.3,89,0.00,CLR,,0.00,WeatherDisplay:10.37,2015-03-26 04:23:00,
2015-03-26 00:28:00,54.4,51.2,30.09,SSW,211,3.5,3.5,89,0.00,CLR,,0.00,WeatherDisplay:10.37,2015-03-26 04:28:00,
2015-03-26 00:33:00,54.4,51.2,30.09,SW,216,3.5,3.5,89,0.00,CLR,,0.00,WeatherDisplay:10.37,2015-03-26 04:33:00,
2015-03-26 00:38:00,54.4,51.5,30.09,SW,216,3.5,3.5,90,0.00,CLR,,0.00,WeatherDisplay:10.37,2015-03-26 04:38:00,
2015-03-26 00:43:00,54.2,51.3,30.09,SSW,212,9.0,9.0,90,0.00,CLR,,0.00,WeatherDisplay:10.37,2015-03-26 04:43:00,
2015-03-26 00:48:00,54.2,51.3,30.09,SSE,159,3.5,3.5,90,0.00,CLR,,0.00,WeatherDisplay:10.37,2015-03-26 04:48:00,
2015-03-26 00:53:00,54.1,51.2,30.09,South,181,5.0,5.0,90,0.00,CLR,,0.00,WeatherDisplay:10.37,2015-03-26 04:53:00,
2015-03-26 00:58:00,54.1,51.2,30.08,SSE,164,3.5,0.0,90,0.00,CLR,,0.00,WeatherDisplay:10.37,2015-03-26 04:58:00,
2015-03-26 01:03:00,54.1,51.5,30.08,SSE,168,5.8,5.8,91,0.00,CLR,,0.00,WeatherDisplay:10.37,2015-03-26 05:03:00,
2015-03-26 01:08:00,54.1,51.5,30.08,SSE,168,2.0,2.0,91,0.00,CLR,,0.00,WeatherDisplay:10.37,2015-03-26 05:08:00,
2015-03-26 01:13:00,54.1,51.5,30.07,SSE,168,2.3,2.3,91,0.00,CLR,,0.00,WeatherDisplay:10.37,2015-03-26 05:13:00,
2015-03-26 01:18:00,53.9,51.3,30.07,SSE,168,2.3,2.3,91,0.00,CLR,,0.00,WeatherDisplay:10.37,2015-03-26 05:18:00,
2015-03-26 01:23:00,53.9,51.3,30.07,SSE,168,0.0,0.0,91,0.00,CLR,,0.00,WeatherDisplay:10.37,2015-03-26 05:23:00,
2015-03-26 01:28:00,53.9,51.3,30.06,SSE,168,0.0,0.0,91,0.00,CLR,,0.00,WeatherDisplay:10.37,2015-03-26 05:28:00,
2015-03-26 01:33:00,53.9,51.3,30.06,SSE,168,0.0,0.0,91,0.00,CLR,,0.00,WeatherDisplay:10.37,2015-03-26 05:33:00,
2015-03-26 01:38:00,53.9,51.3,30.06,SSE,167,3.5,3.5,91,0.00,CLR,,0.00,WeatherDisplay:10.37,2015-03-26 05:38:00,
2015-03-26 01:43:00,53.9,51.3,30.06,ESE,103,1.0,1.0,91,0.00,CLR,,0.00,WeatherDisplay:10.37,2015-03-26 05:43:00,
2015-03-26 01:48:00,53.9,51.3,30.06,ESE,103,3.5,3.5,91,0.00,CLR,,0.00,WeatherDisplay:10.37,2015-03-26 05:48:00,
2015-03-26 01:53:00,53.9,51.6,30.06,ESE,103,0.0,0.0,92,0.00,CLR,,0.00,WeatherDisplay:10.37,2015-03-26 05:53:00,
2015-03-26 01:58:00,53.9,51.6,30.04,ESE,103,2.3,2.3,92,0.00,CLR,,0.00,WeatherDisplay:10.37,2015-03-26 05:58:00,
2015-03-26 02:03:00,53.9,51.6,30.04,ESE,103,0.0,0.0,92,0.00,CLR,,0.00,WeatherDisplay:10.37,2015-03-26 06:03:00,
2015-03-26 02:08:00,53.8,51.5,30.04,East,98,0.0,0.1,92,0.00,CLR,,0.00,WeatherDisplay:10.37,2015-03-26 06:08:00,
2015-03-26 02:13:00,53.8,51.5,30.03,East,98,0.0,0.0,92,0.00,CLR,,0.00,WeatherDisplay:10.37,2015-03-26 06:13:00,
2015-03-26 02:18:00,53.8,51.5,30.03,East,98,4.0,4.0,92,0.00,CLR,,0.00,WeatherDisplay:10.37,2015-03-26 06:18:00,
2015-03-26 02:23:00,53.8,51.5,30.03,ESE,103,3.5,3.5,92,0.00,CLR,,0.00,WeatherDisplay:10.37,2015-03-26 06:23:00,
2015-03-26 02:28:00,53.8,51.5,30.02,ESE,103,2.3,2.3,92,0.00,CLR,,0.00,WeatherDisplay:10.37,2015-03-26 06:28:00,
2015-03-26 02:33:00,53.8,51.5,30.02,ESE,103,0.0,0.0,92,0.00,CLR,,0.00,WeatherDisplay:10.37,2015-03-26 06:33:00,
2015-03-26 02:38:00,53.8,51.5,30.02,ESE,103,3.5,3.5,92,0.00,CLR,,0.00,WeatherDisplay:10.37,2015-03-26 06:38:00,
2015-03-26 02:43:00,53.8,51.5,30.01,ESE,119,2.3,2.3,92,0.00,CLR,,0.00,WeatherDisplay:10.37,2015-03-26 06:43:00,
2015-03-26 02:48:00,53.8,51.5,30.01,ESE,119,2.3,2.3,92,0.00,CLR,,0.00,WeatherDisplay:10.37,2015-03-26 06:48:00,
2015-03-26 02:53:00,53.8,51.5,30.01,ESE,119,0.0,0.0,92,0.00,CLR,,0.00,WeatherDisplay:10.37,2015-03-26 06:53:00,
2015-03-26 02:58:00,53.9,51.9,30.00,SSW,200,2.3,2.3,93,0.00,CLR,,0.00,WeatherDisplay:10.37,2015-03-26 06:58:00,
2015-03-26 03:03:00,54.1,52.1,30.00,SSE,162,6.9,6.9,93,0.00,CLR,,0.00,WeatherDisplay:10.37,2015-03-26 07:03:00,
2015-03-26 03:08:00,54.1,52.1,30.00,SSE,155,3.5,0.0,93,0.00,CLR,,0.00,WeatherDisplay:10.37,2015-03-26 07:08:00,
2015-03-26 03:13:00,54.1,52.1,30.00,East,86,3.5,3.5,93,0.00,CLR,,0.00,WeatherDisplay:10.37,2015-03-26 07:13:00,
2015-03-26 03:18:00,54.2,52.2,30.00,East,86,3.5,3.5,93,0.00,CLR,,0.00,WeatherDisplay:10.37,2015-03-26 07:18:00,
2015-03-26 03:23:00,54.2,52.2,30.00,SSW,198,3.5,3.5,93,0.00,CLR,,0.00,WeatherDisplay:10.37,2015-03-26 07:23:00,
2015-03-26 03:28:00,54.4,52.4,29.98,SE,134,5.8,5.8,93,0.00,CLR,,0.00,WeatherDisplay:10.37,2015-03-26 07:28:00,
2015-03-26 03:33:00,54.4,52.4,29.98,East,100,2.0,2.0,93,0.00,CLR,,0.00,WeatherDisplay:10.37,2015-03-26 07:33:00,
2015-03-26 03:38:00,54.4,52.4,29.98,SE,144,0.0,0.0,93,0.00,CLR,,0.00,WeatherDisplay:10.37,2015-03-26 07:38:00,
2015-03-26 03:43:00,54.4,52.4,29.98,SE,144,0.0,0.0,93,0.00,CLR,,0.00,WeatherDisplay:10.37,2015-03-26 07:43:00,
2015-03-26 03:48:00,54.4,52.4,29.98,SE,132,6.0,6.0,93,0.00,CLR,,0.00,WeatherDisplay:10.37,2015-03-26 07:48:00,
2015-03-26 03:53:00,54.4,52.4,29.98,SSW,209,6.9,6.9,93,0.00,CLR,,0.00,WeatherDisplay:10.37,2015-03-26 07:53:00,
2015-03-26 03:58:00,54.4,52.4,29.97,SE,146,9.0,9.0,93,0.00,CLR,,0.00,WeatherDisplay:10.37,2015-03-26 07:58:00,
2015-03-26 04:03:00,54.4,52.4,29.97,ESE,111,1.1,0.0,93,0.00,CLR,,0.00,WeatherDisplay:10.37,2015-03-26 08:03:00,
2015-03-26 04:08:00,54.2,52.2,29.97,ESE,112,3.5,3.5,93,0.00,CLR,,0.00,WeatherDisplay:10.37,2015-03-26 08:08:00,
2015-03-26 04:13:00,54.1,52.1,29.97,SE,125,4.6,4.6,93,0.00,CLR,,0.00,WeatherDisplay:10.37,2015-03-26 08:13:00,
2015-03-26 04:18:00,54.1,52.1,29.97,SSW,210,5.0,5.0,93,0.00,CLR,,0.00,WeatherDisplay:10.37,2015-03-26 08:18:00,
2015-03-26 04:23:00,53.9,51.9,29.97,SSW,197,3.5,3.5,93,0.00,CLR,,0.00,WeatherDisplay:10.37,2015-03-26 08:23:00,
2015-03-26 04:28:00,53.9,51.9,29.95,ENE,69,5.0,5.0,93,0.00,CLR,,0.00,WeatherDisplay:10.37,2015-03-26 08:28:00,
2015-03-26 04:33:00,53.8,51.8,29.95,ENE,62,3.5,3.5,93,0.00,CLR,,0.00,WeatherDisplay:10.37,2015-03-26 08:33:00,
2015-03-26 04:38:00,53.8,51.8,29.95,ENE,57,3.5,3.5,93,0.00,CLR,,0.00,WeatherDisplay:10.37,2015-03-26 08:38:00,
2015-03-26 04:43:00,53.8,51.8,29.95,ENE,57,0.0,0.0,93,0.00,CLR,,0.00,WeatherDisplay:10.37,2015-03-26 08:43:00,
2015-03-26 04:48:00,53.8,51.8,29.95,ENE,57,0.0,0.0,93,0.00,CLR,,0.00,WeatherDisplay:10.37,2015-03-26 08:48:00,
2015-03-26 04:53:00,53.8,51.8,29.95,ENE,57,0.0,0.0,93,0.00,CLR,,0.00,WeatherDisplay:10.37,2015-03-26 08:53:00,
2015-03-26 04:58:00,53.8,51.8,29.95,ENE,57,0.0,0.0,93,0.00,CLR,,0.00,WeatherDisplay:10.37,2015-03-26 08:58:00,
2015-03-26 05:03:00,53.8,51.8,29.95,ENE,57,0.0,0.0,93,0.00,CLR,,0.00,WeatherDisplay:10.37,2015-03-26 09:03:00,
2015-03-26 05:08:00,53.8,51.8,29.95,ENE,57,0.0,0.0,93,0.00,CLR,,0.00,WeatherDisplay:10.37,2015-03-26 09:08:00,
2015-03-26 05:13:00,53.8,51.8,29.95,ENE,57,0.0,0.0,93,0.00,CLR,,0.00,WeatherDisplay:10.37,2015-03-26 09:13:00,
2015-03-26 05:18:00,53.8,51.8,29.94,ENE,57,0.0,0.0,93,0.00,CLR,,0.00,WeatherDisplay:10.37,2015-03-26 09:18:00,
2015-03-26 05:23:00,53.8,51.8,29.94,ENE,57,0.0,0.0,93,0.00,CLR,,0.00,WeatherDisplay:10.37,2015-03-26 09:23:00,
2015-03-26 05:28:00,53.8,51.8,29.94,ENE,57,0.0,0.0,93,0.00,CLR,,0.00,WeatherDisplay:10.37,2015-03-26 09:28:00,
2015-03-26 05:33:00,53.6,51.6,29.94,ENE,57,0.0,0.0,93,0.00,CLR,,0.00,WeatherDisplay:10.37,2015-03-26 09:33:00,
2015-03-26 05:38:00,53.6,51.6,29.94,ENE,57,0.0,0.0,93,0.00,CLR,,0.00,WeatherDisplay:10.37,2015-03-26 09:38:00,
2015-03-26 05:43:00,53.5,51.5,29.94,ENE,57,0.0,0.0,93,0.00,CLR,,0.00,WeatherDisplay:10.37,2015-03-26 09:43:00,
2015-03-26 05:48:00,53.5,51.5,29.94,ENE,57,0.0,0.0,93,0.00,CLR,,0.00,WeatherDisplay:10.37,2015-03-26 09:48:00,
2015-03-26 05:53:00,53.3,51.3,29.94,ENE,57,0.0,0.0,93,0.00,CLR,,0.00,WeatherDisplay:10.37,2015-03-26 09:53:00,
2015-03-26 05:58:00,53.3,51.3,29.94,ENE,57,0.0,0.0,93,0.01,RA,,0.01,WeatherDisplay:10.37,2015-03-26 09:58:00,
2015-03-26 06:03:00,53.2,51.2,29.94,ENE,57,0.0,0.0,93,0.01,RA,,0.01,WeatherDisplay:10.37,2015-03-26 10:03:00,
2015-03-26 06:08:00,53.2,51.2,29.94,ENE,57,0.0,0.0,93,0.01,,,0.01,WeatherDisplay:10.37,2015-03-26 10:08:00,
2015-03-26 06:13:00,53.1,51.1,29.94,ENE,57,0.0,0.0,93,0.01,CLR,,0.01,WeatherDisplay:10.37,2015-03-26 10:13:00,
2015-03-26 06:18:00,52.9,50.9,29.94,ENE,57,0.0,0.0,93,0.01,CLR,,0.01,WeatherDisplay:10.37,2015-03-26 10:18:00,
2015-03-26 06:23:00,52.8,50.8,29.94,ENE,57,0.0,0.0,93,0.01,CLR,,0.01,WeatherDisplay:10.37,2015-03-26 10:23:00,
2015-03-26 06:28:00,52.5,50.2,29.94,ENE,57,2.3,2.3,92,0.01,CLR,,0.01,WeatherDisplay:10.37,2015-03-26 10:28:00,
2015-03-26 06:33:00,52.3,50.3,29.94,ENE,57,0.0,0.0,93,0.01,CLR,,0.01,WeatherDisplay:10.37,2015-03-26 10:33:00,
2015-03-26 06:38:00,52.2,50.2,29.94,ENE,57,3.5,3.5,93,0.01,CLR,,0.01,WeatherDisplay:10.37,2015-03-26 10:38:00,
2015-03-26 06:43:00,52.0,50.0,29.94,ENE,57,2.3,0.0,93,0.01,CLR,,0.01,WeatherDisplay:10.37,2015-03-26 10:43:00,
2015-03-26 06:48:00,51.9,49.9,29.94,ENE,57,0.0,0.0,93,0.01,CLR,,0.01,WeatherDisplay:10.37,2015-03-26 10:48:00,
2015-03-26 06:53:00,51.9,49.9,29.94,ENE,57,0.0,0.0,93,0.01,CLR,,0.01,WeatherDisplay:10.37,2015-03-26 10:53:00,
2015-03-26 06:58:00,51.9,49.9,29.94,ENE,57,0.0,0.0,93,0.00,CLR,,0.01,WeatherDisplay:10.37,2015-03-26 10:58:00,
2015-03-26 07:03:00,51.7,49.7,29.94,ENE,57,0.0,0.0,93,0.00,CLR,,0.01,WeatherDisplay:10.37,2015-03-26 11:03:00,
2015-03-26 07:08:00,51.6,49.6,29.94,ENE,57,0.0,0.0,93,0.00,CLR,,0.01,WeatherDisplay:10.37,2015-03-26 11:08:00,
2015-03-26 07:13:00,51.6,49.6,29.95,ENE,57,0.0,0.0,93,0.00,CLR,,0.01,WeatherDisplay:10.37,2015-03-26 11:13:00,
2015-03-26 07:18:00,51.4,49.4,29.95,ENE,57,0.0,0.0,93,0.00,CLR,,0.01,WeatherDisplay:10.37,2015-03-26 11:18:00,
2015-03-26 07:23:00,51.4,49.4,29.95,ENE,57,0.0,0.0,93,0.00,CLR,,0.01,WeatherDisplay:10.37,2015-03-26 11:23:00,
2015-03-26 07:28:00,51.3,49.3,29.95,ENE,57,0.0,0.0,93,0.00,CLR,,0.01,WeatherDisplay:10.37,2015-03-26 11:28:00,
2015-03-26 07:33:00,51.1,49.1,29.95,ENE,57,0.0,0.0,93,0.00,CLR,,0.01,WeatherDisplay:10.37,2015-03-26 11:33:00,
2015-03-26 07:38:00,51.0,49.0,29.95,ENE,57,0.0,0.0,93,0.00,CLR,,0.01,WeatherDisplay:10.37,2015-03-26 11:38:00,
2015-03-26 07:43:00,51.0,49.0,29.95,ENE,57,0.0,0.0,93,0.00,CLR,,0.01,WeatherDisplay:10.37,2015-03-26 11:43:00,
2015-03-26 07:48:00,50.8,48.8,29.95,ENE,57,0.0,0.0,93,0.00,CLR,,0.01,WeatherDisplay:10.37,2015-03-26 11:48:00,
2015-03-26 07:53:00,50.8,48.8,29.95,ENE,57,0.0,0.0,93,0.00,CLR,,0.01,WeatherDisplay:10.37,2015-03-26 11:53:00,
2015-03-26 07:58:00,50.8,48.8,29.95,ENE,57,3.5,3.5,93,0.00,CLR,,0.01,WeatherDisplay:10.37,2015-03-26 11:58:00,
2015-03-26 08:03:00,51.0,49.0,29.95,ENE,60,4.0,4.0,93,0.00,CLR,,0.01,WeatherDisplay:10.37,2015-03-26 12:03:00,
2015-03-26 08:08:00,51.3,49.6,29.95,SE,135,3.5,0.0,94,0.00,CLR,,0.01,WeatherDisplay:10.37,2015-03-26 12:08:00,
2015-03-26 08:13:00,51.6,49.9,29.94,SE,135,6.0,6.0,94,0.00,CLR,,0.01,WeatherDisplay:10.37,2015-03-26 12:13:00,
2015-03-26 08:18:00,51.9,50.2,29.94,SSE,152,1.1,1.1,94,0.00,CLR,,0.01,WeatherDisplay:10.37,2015-03-26 12:18:00,
2015-03-26 08:23:00,51.9,50.2,29.94,SSE,152,1.1,0.0,94,0.00,CLR,,0.01,WeatherDisplay:10.37,2015-03-26 12:23:00,
2015-03-26 08:28:00,51.9,49.9,29.95,NE,38,1.1,0.0,93,0.00,CLR,,0.01,WeatherDisplay:10.37,2015-03-26 12:28:00,
2015-03-26 08:33:00,52.0,50.0,29.95,NE,38,0.0,0.0,93,0.00,CLR,,0.01,WeatherDisplay:10.37,2015-03-26 12:33:00,
2015-03-26 08:38:00,52.0,50.0,29.95,NE,38,0.0,0.0,93,0.00,CLR,,0.01,WeatherDisplay:10.37,2015-03-26 12:38:00,
2015-03-26 08:43:00,52.2,50.5,29.95,NNW,329,0.0,0.0,94,0.00,CLR,,0.01,WeatherDisplay:10.37,2015-03-26 12:43:00,
2015-03-26 08:48:00,52.3,50.6,29.95,NNW,329,0.0,0.0,94,0.00,CLR,,0.01,WeatherDisplay:10.37,2015-03-26 12:48:00,
2015-03-26 08:53:00,52.5,50.8,29.95,NNW,329,0.0,0.0,94,0.00,CLR,,0.01,WeatherDisplay:10.37,2015-03-26 12:53:00,
2015-03-26 08:58:00,52.9,51.2,29.94,West,265,0.0,0.0,94,0.00,CLR,,0.01,WeatherDisplay:10.37,2015-03-26 12:58:00,
2015-03-26 09:03:00,53.2,51.5,29.94,West,265,3.0,3.0,94,0.00,CLR,,0.01,WeatherDisplay:10.37,2015-03-26 13:03:00,
2015-03-26 09:18:00,54.5,52.5,29.94,South,187,6.0,0.0,93,0.00,CLR,,0.01,WeatherDisplay:10.37,2015-03-26 13:18:00,
2015-03-26 09:23:00,55.3,53.0,29.94,South,187,2.0,2.0,92,0.00,CLR,,0.01,WeatherDisplay:10.37,2015-03-26 13:23:00,
2015-03-26 09:28:00,56.0,53.4,29.92,South,187,4.0,4.0,91,0.00,CLR,,0.01,WeatherDisplay:10.37,2015-03-26 13:28:00,
2015-03-26 09:33:00,56.6,52.1,29.92,South,187,3.5,3.5,85,0.00,CLR,,0.01,WeatherDisplay:10.37,2015-03-26 13:33:00,
2015-03-26 09:38:00,57.2,52.1,29.92,South,187,3.5,3.5,83,0.00,CLR,,0.01,WeatherDisplay:10.37,2015-03-26 13:38:00,
2015-03-26 09:43:00,57.6,51.1,29.92,South,178,3.5,3.5,79,0.00,CLR,,0.01,WeatherDisplay:10.37,2015-03-26 13:43:00,
2015-03-26 09:48:00,58.1,50.9,29.92,South,178,0.0,0.0,77,0.00,CLR,,0.01,WeatherDisplay:10.37,2015-03-26 13:48:00,
2015-03-26 09:53:00,58.3,50.8,29.92,South,178,0.0,0.0,76,0.00,CLR,,0.01,WeatherDisplay:10.37,2015-03-26 13:53:00,
2015-03-26 09:58:00,58.6,51.1,29.91,South,178,0.0,0.0,76,0.00,CLR,,0.01,WeatherDisplay:10.37,2015-03-26 13:58:00,
2015-03-26 10:03:00,59.0,51.4,29.91,South,178,0.0,0.0,76,0.00,CLR,,0.01,WeatherDisplay:10.37,2015-03-26 14:03:00,
2015-03-26 10:08:00,59.6,52.4,29.91,South,178,2.0,2.0,77,0.00,CLR,,0.01,WeatherDisplay:10.37,2015-03-26 14:08:00,
2015-03-26 10:13:00,59.9,51.2,29.90,South,178,3.5,3.5,73,0.00,CLR,,0.01,WeatherDisplay:10.37,2015-03-26 14:13:00,
2015-03-26 10:18:00,60.4,50.2,29.90,SSW,205,3.5,3.5,69,0.00,CLR,,0.01,WeatherDisplay:10.37,2015-03-26 14:18:00,
2015-03-26 10:23:00,61.0,50.8,29.90,SSW,207,0.0,0.0,69,0.00,CLR,,0.01,WeatherDisplay:10.37,2015-03-26 14:23:00,
2015-03-26 10:28:00,61.5,48.8,29.89,NW,317,4.6,4.6,63,0.00,CLR,,0.01,WeatherDisplay:10.37,2015-03-26 14:28:00,
2015-03-26 10:33:00,62.4,50.5,29.89,West,261,3.5,3.5,65,0.00,CLR,,0.01,WeatherDisplay:10.37,2015-03-26 14:33:00,
2015-03-26 10:38:00,63.5,51.1,29.89,West,281,6.9,6.9,64,0.00,CLR,,0.01,WeatherDisplay:10.37,2015-03-26 14:38:00,
2015-03-26 10:43:00,63.9,48.4,29.87,WNW,291,9.2,9.2,57,0.00,CLR,,0.01,WeatherDisplay:10.37,2015-03-26 14:43:00,
2015-03-26 10:48:00,64.0,48.5,29.87,WNW,288,6.9,6.9,57,0.00,CLR,,0.01,WeatherDisplay:10.37,2015-03-26 14:48:00,
2015-03-26 10:53:00,64.2,48.6,29.87,West,276,4.6,4.6,57,0.00,CLR,,0.01,WeatherDisplay:10.37,2015-03-26 14:53:00,
2015-03-26 10:58:00,64.7,48.2,29.86,WNW,297,10.4,10.4,55,0.00,CLR,,0.01,WeatherDisplay:10.37,2015-03-26 14:58:00,
2015-03-26 11:03:00,65.0,49.9,29.86,West,276,4.0,4.0,58,0.00,CLR,,0.01,WeatherDisplay:10.37,2015-03-26 15:03:00,
2015-03-26 11:08:00,65.5,47.4,29.86,WNW,291,12.7,12.7,52,0.00,CLR,,0.01,WeatherDisplay:10.37,2015-03-26 15:08:00,
2015-03-26 11:13:00,65.6,48.0,29.85,NW,312,9.2,9.2,53,0.00,CLR,,0.01,WeatherDisplay:10.37,2015-03-26 15:13:00,
2015-03-26 11:18:00,66.1,49.0,29.85,NW,319,6.9,6.9,54,0.00,CLR,,0.01,WeatherDisplay:10.37,2015-03-26 15:18:00,
2015-03-26 11:24:00,66.3,47.6,29.85,West,279,12.7,12.7,51,0.00,CLR,,0.01,WeatherDisplay:10.37,2015-03-26 15:24:00,
2015-03-26 11:29:00,66.4,46.7,29.84,WNW,295,1.1,1.1,49,0.00,CLR,,0.01,WeatherDisplay:10.37,2015-03-26 15:29:00,
2015-03-26 11:34:00,66.8,47.0,29.84,West,266,4.6,4.6,49,0.00,CLR,,0.01,WeatherDisplay:10.37,2015-03-26 15:34:00,
2015-03-26 12:36:00,68.8,49.4,29.79,NNE,13,23.0,23.0,50,0.00,CLR,,0.01,WeatherDisplay:10.37,2015-03-26 16:36:00,
2015-03-26 12:41:00,68.6,47.6,29.79,NW,320,11.5,11.5,47,0.00,CLR,,0.01,WeatherDisplay:10.37,2015-03-26 16:41:00,
2015-03-26 12:46:00,68.8,49.9,29.79,North,355,12.7,12.7,51,0.00,CLR,,0.01,WeatherDisplay:10.37,2015-03-26 16:46:00,
2015-03-26 12:51:00,68.8,48.3,29.79,WNW,293,11.5,11.5,48,0.00,CLR,,0.01,WeatherDisplay:10.37,2015-03-26 16:51:00,
2015-03-26 12:56:00,68.9,48.9,29.79,North,355,3.5,3.5,49,0.00,CLR,,0.01,WeatherDisplay:10.37,2015-03-26 16:56:00,
2015-03-26 13:01:00,69.1,48.6,29.78,WNW,284,5.8,5.8,48,0.00,CLR,,0.01,WeatherDisplay:10.37,2015-03-26 17:01:00,
2015-03-26 13:06:00,69.6,50.1,29.78,WNW,289,12.7,12.7,50,0.00,CLR,,0.01,WeatherDisplay:10.37,2015-03-26 17:06:00,
2015-03-26 13:11:00,69.6,49.0,29.78,West,273,18.0,18.0,48,0.00,CLR,,0.01,WeatherDisplay:10.37,2015-03-26 17:11:00,
2015-03-26 13:16:00,69.6,50.1,29.78,North,355,5.0,5.0,50,0.00,CLR,,0.01,WeatherDisplay:10.37,2015-03-26 17:16:00,
2015-03-26 13:21:00,69.6,48.5,29.78,WNW,292,11.5,11.5,47,0.00,CLR,,0.01,WeatherDisplay:10.37,2015-03-26 17:21:00,
2015-03-26 13:26:00,69.4,48.9,29.78,North,360,9.2,9.2,48,0.00,CLR,,0.01,WeatherDisplay:10.37,2015-03-26 17:26:00,
2015-03-26 13:31:00,69.1,48.6,29.77,WNW,303,17.3,17.3,48,0.00,CLR,,0.01,WeatherDisplay:10.37,2015-03-26 17:31:00,
2015-03-26 13:36:00,68.6,49.2,29.77,WNW,298,4.6,4.6,50,0.00,CLR,,0.01,WeatherDisplay:10.37,2015-03-26 17:36:00,
2015-03-26 13:41:00,68.4,49.0,29.77,NNW,347,2.3,2.3,50,0.00,CLR,,0.01,WeatherDisplay:10.37,2015-03-26 17:41:00,
2015-03-26 13:46:00,68.6,48.7,29.76,NW,321,4.6,4.6,49,0.00,CLR,,0.01,WeatherDisplay:10.37,2015-03-26 17:46:00,
2015-03-26 13:51:00,68.8,51.0,29.76,WNW,294,5.0,5.0,53,0.00,CLR,,0.01,WeatherDisplay:10.37,2015-03-26 17:51:00,
2015-03-26 13:56:00,68.9,48.9,29.76,NW,306,5.0,5.0,49,0.00,CLR,,0.01,WeatherDisplay:10.37,2015-03-26 17:56:00,
2015-03-26 14:01:00,68.9,49.5,29.77,WNW,295,3.5,3.5,50,0.00,CLR,,0.01,WeatherDisplay:10.37,2015-03-26 18:01:00,
2015-03-26 14:06:00,68.9,50.0,29.77,NW,310,3.5,3.5,51,0.00,CLR,,0.01,WeatherDisplay:10.37,2015-03-26 18:06:00,
2015-03-26 14:11:00,69.1,49.1,29.77,NNW,329,6.0,6.0,49,0.00,CLR,,0.01,WeatherDisplay:10.37,2015-03-26 18:11:00,
2015-03-26 14:16:00,69.6,49.0,29.75,WNW,296,2.0,2.0,48,0.00,CLR,,0.01,WeatherDisplay:10.37,2015-03-26 18:16:00,
2015-03-26 14:21:00,69.8,48.7,29.75,WNW,293,4.6,0.0,47,0.00,CLR,,0.01,WeatherDisplay:10.37,2015-03-26 18:21:00,
2015-03-26 14:26:00,69.6,48.5,29.75,NNE,27,11.0,11.0,47,0.00,CLR,,0.01,WeatherDisplay:10.37,2015-03-26 18:26:00,
2015-03-26 14:31:00,69.6,49.6,29.75,West,279,5.0,5.0,49,0.00,CLR,,0.01,WeatherDisplay:10.37,2015-03-26 18:31:00,
2015-03-26 14:36:00,69.3,48.8,29.75,NNE,16,6.0,6.0,48,0.00,CLR,,0.01,WeatherDisplay:10.37,2015-03-26 18:36:00,
2015-03-26 14:41:00,69.1,49.1,29.75,West,266,6.0,6.0,49,0.00,CLR,,0.01,WeatherDisplay:10.37,2015-03-26 18:41:00,
2015-03-26 14:46:00,68.9,50.5,29.75,NNE,28,15.0,15.0,52,0.00,CLR,,0.01,WeatherDisplay:10.37,2015-03-26 18:46:00,
2015-03-26 14:51:00,68.9,48.9,29.75,NNE,27,13.0,13.0,49,0.00,CLR,,0.01,WeatherDisplay:10.37,2015-03-26 18:51:00,
2015-03-26 14:56:00,68.8,49.9,29.75,NW,323,5.8,5.8,51,0.00,CLR,,0.01,WeatherDisplay:10.37,2015-03-26 18:56:00,
2015-03-26 15:01:00,68.8,49.4,29.75,NNW,345,7.0,7.0,50,0.00,CLR,,0.01,WeatherDisplay:10.37,2015-03-26 19:01:00,
2015-03-26 15:06:00,68.6,48.7,29.75,West,275,10.4,10.4,49,0.00,CLR,,0.01,WeatherDisplay:10.37,2015-03-26 19:06:00,
2015-03-26 15:11:00,68.8,49.4,29.75,West,274,3.5,3.5,50,0.00,CLR,,0.01,WeatherDisplay:10.37,2015-03-26 19:11:00,
2015-03-26 15:16:00,68.9,50.0,29.74,West,274,2.3,2.3,51,0.00,CLR,,0.01,WeatherDisplay:10.37,2015-03-26 19:16:00,
2015-03-26 15:21:00,68.6,53.2,29.74,SSW,192,13.8,13.8,58,0.00,CLR,,0.01,WeatherDisplay:10.37,2015-03-26 19:21:00,
2015-03-26 15:26:00,67.9,52.6,29.74,SSE,157,5.8,5.8,58,0.00,CLR,,0.01,WeatherDisplay:10.37,2015-03-26 19:26:00,
2015-03-26 15:31:00,67.6,53.2,29.73,SSE,160,0.0,0.0,60,0.00,CLR,,0.01,WeatherDisplay:10.37,2015-03-26 19:31:00,
2015-03-26 15:36:00,67.6,54.1,29.73,West,262,5.8,5.8,62,0.00,CLR,,0.01,WeatherDisplay:10.37,2015-03-26 19:36:00,
2015-03-26 15:41:00,67.4,53.0,29.73,West,262,3.5,3.5,60,0.00,CLR,,0.01,WeatherDisplay:10.37,2015-03-26 19:41:00,
2015-03-26 15:46:00,67.4,53.5,29.73,West,261,3.5,3.5,61,0.00,CLR,,0.01,WeatherDisplay:10.37,2015-03-26 19:46:00,
2015-03-26 15:51:00,67.3,52.9,29.73,West,259,2.0,2.0,60,0.00,CLR,,0.01,WeatherDisplay:10.37,2015-03-26 19:51:00,
2015-03-26 15:56:00,67.1,53.2,29.73,West,259,4.6,4.6,61,0.00,CLR,,0.01,WeatherDisplay:10.37,2015-03-26 19:56:00,
2015-03-26 16:01:00,66.9,52.6,29.73,West,260,3.5,3.5,60,0.00,CLR,,0.01,WeatherDisplay:10.37,2015-03-26 20:01:00,
2015-03-26 16:06:00,66.9,52.1,29.73,West,261,4.6,4.6,59,0.00,CLR,,0.01,WeatherDisplay:10.37,2015-03-26 20:06:00,
2015-03-26 16:11:00,67.1,50.9,29.73,West,261,2.3,0.0,56,0.00,CLR,,0.01,WeatherDisplay:10.37,2015-03-26 20:11:00,
2015-03-26 16:16:00,67.4,51.6,29.72,WNW,282,4.6,4.6,57,0.00,CLR,,0.01,WeatherDisplay:10.37,2015-03-26 20:16:00,
2015-03-26 16:21:00,67.8,51.0,29.72,NNW,348,3.5,3.5,55,0.00,CLR,,0.01,WeatherDisplay:10.37,2015-03-26 20:21:00,
2015-03-26 16:26:00,67.8,50.5,29.72,NNW,347,3.5,3.5,54,0.00,CLR,,0.01,WeatherDisplay:10.37,2015-03-26 20:26:00,
2015-03-26 16:31:00,67.9,51.1,29.72,WSW,252,0.0,1.2,55,0.00,CLR,,0.01,WeatherDisplay:10.37,2015-03-26 20:31:00,
2015-03-26 16:36:00,67.9,51.1,29.72,SW,230,4.0,4.0,55,0.00,CLR,,0.01,WeatherDisplay:10.37,2015-03-26 20:36:00,
2015-03-26 16:41:00,67.8,52.0,29.72,WSW,237,2.3,2.7,57,0.00,CLR,,0.01,WeatherDisplay:10.37,2015-03-26 20:41:00,
2015-03-26 16:46:00,67.4,51.6,29.72,SSE,160,5.8,5.8,57,0.00,CLR,,0.01,WeatherDisplay:10.37,2015-03-26 20:46:00,
2015-03-26 16:51:00,67.1,52.3,29.72,South,172,5.8,5.8,59,0.00,CLR,,0.01,WeatherDisplay:10.37,2015-03-26 20:51:00,
2015-03-26 16:56:00,66.9,53.0,29.72,South,182,10.4,10.4,61,0.00,CLR,,0.01,WeatherDisplay:10.37,2015-03-26 20:56:00,
2015-03-26 17:01:00,66.8,53.8,29.71,SE,136,7.0,7.0,63,0.00,CLR,,0.01,WeatherDisplay:10.37,2015-03-26 21:01:00,
2015-03-26 17:06:00,66.8,53.4,29.71,SE,129,11.5,11.5,62,0.00,CLR,,0.01,WeatherDisplay:10.37,2015-03-26 21:06:00,
2015-03-26 17:11:00,66.8,53.4,29.71,SE,125,6.0,6.0,62,0.00,CLR,,0.01,WeatherDisplay:10.37,2015-03-26 21:11:00,
2015-03-26 17:16:00,66.6,53.2,29.70,South,191,10.4,10.4,62,0.00,CLR,,0.01,WeatherDisplay:10.37,2015-03-26 21:16:00,
2015-03-26 17:21:00,66.4,53.0,29.70,South,180,10.4,10.4,62,0.00,CLR,,0.01,WeatherDisplay:10.37,2015-03-26 21:21:00,
2015-03-26 17:26:00,66.1,53.1,29.70,South,175,13.8,13.8,63,0.00,CLR,,0.01,WeatherDisplay:10.37,2015-03-26 21:26:00,
2015-03-26 17:31:00,65.8,52.9,29.70,SE,136,6.9,6.9,63,0.00,CLR,,0.01,WeatherDisplay:10.37,2015-03-26 21:31:00,
2015-03-26 17:36:00,65.8,53.3,29.70,SSW,195,15.0,15.0,64,0.00,CLR,,0.01,WeatherDisplay:10.37,2015-03-26 21:36:00,
2015-03-26 17:41:00,65.6,53.1,29.70,SE,145,9.0,9.0,64,0.00,CLR,,0.01,WeatherDisplay:10.37,2015-03-26 21:41:00,
2015-03-26 17:46:00,65.5,53.0,29.69,South,190,10.4,10.4,64,0.00,CLR,,0.01,WeatherDisplay:10.37,2015-03-26 21:46:00,
2015-03-26 17:51:00,65.2,52.7,29.69,SSW,202,12.7,12.7,64,0.00,CLR,,0.01,WeatherDisplay:10.37,2015-03-26 21:51:00,
2015-03-26 17:56:00,65.0,52.9,29.69,SSW,208,13.8,13.8,65,0.00,CLR,,0.01,WeatherDisplay:10.37,2015-03-26 21:56:00,
2015-03-26 18:01:00,64.7,53.1,29.69,SE,146,13.8,13.8,66,0.00,CLR,,0.01,WeatherDisplay:10.37,2015-03-26 22:01:00,
2015-03-26 18:06:00,64.5,52.9,29.69,SSE,158,11.5,11.5,66,0.00,CLR,,0.01,WeatherDisplay:10.37,2015-03-26 22:06:00,
2015-03-26 18:11:00,64.3,53.1,29.69,SE,133,10.4,10.4,67,0.00,CLR,,0.01,WeatherDisplay:10.37,2015-03-26 22:11:00,
2015-03-26 18:16:00,64.2,53.4,29.68,SSE,148,13.8,13.8,68,0.00,CLR,,0.01,WeatherDisplay:10.37,2015-03-26 22:16:00,
2015-03-26 18:21:00,64.0,53.2,29.68,South,181,5.8,5.8,68,0.00,CLR,,0.01,WeatherDisplay:10.37,2015-03-26 22:21:00,
2015-03-26 18:26:00,63.7,52.9,29.68,SSW,192,11.5,11.5,68,0.00,CLR,,0.01,WeatherDisplay:10.37,2015-03-26 22:26:00,
2015-03-26 18:31:00,63.7,52.9,29.68,South,170,4.0,4.0,68,0.00,CLR,,0.01,WeatherDisplay:10.37,2015-03-26 22:31:00,
2015-03-26 18:36:00,63.5,52.7,29.68,SE,144,15.0,15.0,68,0.00,CLR,,0.01,WeatherDisplay:10.37,2015-03-26 22:36:00,
2015-03-26 18:41:00,63.4,52.7,29.68,SSW,198,11.5,11.5,68,0.00,CLR,,0.01,WeatherDisplay:10.37,2015-03-26 22:41:00,
2015-03-26 18:46:00,63.2,52.9,29.69,South,190,11.5,11.5,69,0.00,CLR,,0.01,WeatherDisplay:10.37,2015-03-26 22:46:00,
2015-03-26 18:51:00,63.1,52.8,29.69,ESE,113,11.5,11.5,69,0.00,CLR,,0.01,WeatherDisplay:10.37,2015-03-26 22:51:00,
2015-03-26 18:56:00,62.9,52.6,29.69,South,188,11.5,11.5,69,0.00,CLR,,0.01,WeatherDisplay:10.37,2015-03-26 22:56:00,
2015-03-26 19:01:00,62.9,52.6,29.70,South,184,12.7,12.7,69,0.00,CLR,,0.01,WeatherDisplay:10.37,2015-03-26 23:01:00,
2015-03-26 19:06:00,62.7,52.8,29.70,SE,124,11.5,11.5,70,0.00,CLR,,0.01,WeatherDisplay:10.37,2015-03-26 23:06:00,
2015-03-26 19:11:00,62.6,52.7,29.70,SSW,193,11.5,11.5,70,0.00,CLR,,0.01,WeatherDisplay:10.37,2015-03-26 23:11:00,
2015-03-26 19:16:00,62.4,52.9,29.69,SSE,159,11.5,11.5,71,0.00,CLR,,0.01,WeatherDisplay:10.37,2015-03-26 23:16:00,
2015-03-26 19:21:00,62.4,52.9,29.69,East,99,11.5,11.5,71,0.00,CLR,,0.01,WeatherDisplay:10.37,2015-03-26 23:21:00,
2015-03-26 19:26:00,62.3,52.8,29.69,South,186,9.2,9.2,71,0.00,CLR,,0.01,WeatherDisplay:10.37,2015-03-26 23:26:00,
2015-03-26 19:31:00,62.1,52.6,29.70,South,185,13.8,13.8,71,0.00,CLR,,0.01,WeatherDisplay:10.37,2015-03-26 23:31:00,
2015-03-26 19:36:00,62.0,52.9,29.70,SSE,149,13.8,13.8,72,0.00,CLR,,0.01,WeatherDisplay:10.37,2015-03-26 23:36:00,
2015-03-26 19:41:00,61.8,52.7,29.70,SSW,209,15.0,15.0,72,0.00,CLR,,0.01,WeatherDisplay:10.37,2015-03-26 23:41:00,
2015-03-26 19:46:00,61.6,52.5,29.69,South,190,5.8,5.8,72,0.00,CLR,,0.01,WeatherDisplay:10.37,2015-03-26 23:46:00,
2015-03-26 19:51:00,61.6,54.0,29.69,East,88,9.2,9.2,76,0.00,CLR,,0.01,WeatherDisplay:10.37,2015-03-26 23:51:00,
2015-03-26 19:56:00,61.5,52.8,29.69,SE,125,5.8,5.8,73,0.00,CLR,,0.01,WeatherDisplay:10.37,2015-03-26 23:56:00,
2015-03-26 20:01:00,61.3,52.6,29.69,SE,145,13.8,13.8,73,0.00,CLR,,0.01,WeatherDisplay:10.37,2015-03-27 00:01:00,
2015-03-26 20:06:00,61.2,52.5,29.69,SE,142,9.2,9.2,73,0.00,CLR,,0.01,WeatherDisplay:10.37,2015-03-27 00:06:00,
2015-03-26 20:11:00,61.2,52.5,29.69,South,188,5.8,5.8,73,0.00,CLR,,0.01,WeatherDisplay:10.37,2015-03-27 00:11:00,
2015-03-26 20:16:00,61.0,52.3,29.69,East,94,4.6,4.6,73,0.00,CLR,,0.01,WeatherDisplay:10.37,2015-03-27 00:16:00,
2015-03-26 20:21:00,61.0,52.7,29.69,SSE,148,9.2,9.2,74,0.00,CLR,,0.01,WeatherDisplay:10.37,2015-03-27 00:21:00,
2015-03-26 20:26:00,60.9,52.2,29.69,SSE,161,5.0,5.0,73,0.00,CLR,,0.01,WeatherDisplay:10.37,2015-03-27 00:26:00,
2015-03-26 20:31:00,60.9,52.9,29.68,SSW,207,4.6,4.6,75,0.00,CLR,,0.01,WeatherDisplay:10.37,2015-03-27 00:31:00,
2015-03-26 20:36:00,60.9,53.6,29.68,SSW,207,0.0,0.0,77,0.01,RA,,0.02,WeatherDisplay:10.37,2015-03-27 00:36:00,
2015-03-26 20:41:00,60.5,53.6,29.68,WNW,288,3.5,3.5,78,0.01,RA,,0.02,WeatherDisplay:10.37,2015-03-27 00:41:00,
2015-03-26 20:46:00,60.4,53.9,29.69,WNW,288,0.0,0.0,79,0.01,CLR,,0.02,WeatherDisplay:10.37,2015-03-27 00:46:00,
2015-03-26 20:51:00,60.1,53.9,29.69,WNW,287,3.0,3.0,80,0.01,CLR,,0.02,WeatherDisplay:10.37,2015-03-27 00:51:00,
2015-03-26 20:56:00,59.9,53.7,29.69,WNW,287,0.0,0.0,80,0.01,CLR,,0.02,WeatherDisplay:10.37,2015-03-27 00:56:00,
2015-03-26 21:01:00,59.8,53.6,29.69,WNW,288,0.0,0.0,80,0.01,CLR,,0.02,WeatherDisplay:10.37,2015-03-27 01:01:00,
2015-03-26 21:06:00,59.5,54.0,29.69,WNW,288,3.5,3.5,82,0.01,CLR,,0.03,WeatherDisplay:10.37,2015-03-27 01:06:00,
2015-03-26 21:11:00,59.3,54.1,29.69,WNW,288,0.0,0.0,83,0.02,RA,,0.03,WeatherDisplay:10.37,2015-03-27 01:11:00,
2015-03-26 21:16:00,59.2,54.4,29.69,WNW,288,0.0,0.0,84,0.04,RA,,0.05,WeatherDisplay:10.37,2015-03-27 01:16:00,
2015-03-26 21:21:00,59.0,54.2,29.69,WNW,288,3.5,3.5,84,0.04,RA,,0.05,WeatherDisplay:10.37,2015-03-27 01:21:00,
2015-03-26 21:26:00,58.7,53.5,29.69,WNW,286,3.5,3.5,83,0.04,,,0.05,WeatherDisplay:10.37,2015-03-27 01:26:00,
2015-03-26 21:31:00,58.3,53.2,29.69,West,277,5.8,5.8,83,0.05,RA,,0.06,WeatherDisplay:10.37,2015-03-27 01:31:00,
2015-03-26 21:36:00,58.0,52.9,29.69,West,277,3.5,3.5,83,0.04,RA,,0.06,WeatherDisplay:10.37,2015-03-27 01:36:00,
2015-03-26 21:41:00,57.6,52.8,29.69,West,277,0.0,0.0,84,0.04,CLR,,0.06,WeatherDisplay:10.37,2015-03-27 01:41:00,
2015-03-26 21:46:00,57.5,52.7,29.70,West,277,2.3,0.0,84,0.04,CLR,,0.06,WeatherDisplay:10.37,2015-03-27 01:46:00,
2015-03-26 21:51:00,57.3,52.5,29.70,West,277,0.0,0.0,84,0.04,CLR,,0.06,WeatherDisplay:10.37,2015-03-27 01:51:00,
2015-03-26 21:56:00,57.2,52.4,29.70,West,277,0.0,0.0,84,0.04,CLR,,0.06,WeatherDisplay:10.37,2015-03-27 01:56:00,
2015-03-26 22:01:00,57.0,52.5,29.70,West,277,0.0,0.0,85,0.04,CLR,,0.06,WeatherDisplay:10.37,2015-03-27 02:01:00,
2015-03-26 22:06:00,56.9,52.4,29.70,West,277,0.0,0.0,85,0.04,CLR,,0.06,WeatherDisplay:10.37,2015-03-27 02:06:00,
2015-03-26 22:11:00,56.7,52.2,29.70,West,277,0.0,0.0,85,0.03,CLR,,0.06,WeatherDisplay:10.37,2015-03-27 02:11:00,
2015-03-26 22:16:00,56.6,52.1,29.68,West,277,0.0,0.0,85,0.01,CLR,,0.06,WeatherDisplay:10.37,2015-03-27 02:16:00,
2015-03-26 22:21:00,56.5,52.0,29.68,West,277,2.3,0.0,85,0.01,CLR,,0.06,WeatherDisplay:10.37,2015-03-27 02:21:00,
2015-03-26 22:26:00,56.5,52.4,29.68,West,279,3.5,3.5,86,0.01,CLR,,0.06,WeatherDisplay:10.37,2015-03-27 02:26:00,
2015-03-26 22:31:00,56.3,52.2,29.68,West,279,0.0,0.0,86,0.00,CLR,,0.06,WeatherDisplay:10.37,2015-03-27 02:31:00,
2015-03-26 22:36:00,56.3,52.2,29.68,West,279,0.0,0.0,86,0.00,CLR,,0.06,WeatherDisplay:10.37,2015-03-27 02:36:00,
2015-03-26 22:41:00,56.2,52.1,29.68,West,279,2.3,2.3,86,0.00,CLR,,0.06,WeatherDisplay:10.37,2015-03-27 02:41:00,
2015-03-26 22:46:00,56.2,52.4,29.68,WNW,285,10.4,10.4,87,0.00,CLR,,0.06,WeatherDisplay:10.37,2015-03-27 02:46:00,
2015-03-26 22:51:00,56.0,52.2,29.68,West,280,3.5,3.5,87,0.00,CLR,,0.06,WeatherDisplay:10.37,2015-03-27 02:51:00,
2015-03-26 22:56:00,55.9,52.1,29.68,North,350,4.6,4.6,87,0.00,CLR,,0.07,WeatherDisplay:10.37,2015-03-27 02:56:00,
2015-03-26 23:01:00,55.7,51.6,29.69,North,355,0.0,0.4,86,0.02,RA,,0.08,WeatherDisplay:10.37,2015-03-27 03:01:00,
2015-03-26 23:06:00,55.4,51.6,29.69,North,355,3.0,3.0,87,0.03,RA,,0.10,WeatherDisplay:10.37,2015-03-27 03:06:00,
2015-03-26 23:11:00,55.1,51.3,29.69,North,355,4.6,4.6,87,0.04,RA,,0.10,WeatherDisplay:10.37,2015-03-27 03:11:00,
2015-03-26 23:16:00,54.7,50.6,29.68,NNW,346,10.4,10.4,86,0.04,RA,,0.10,WeatherDisplay:10.37,2015-03-27 03:16:00,
2015-03-26 23:21:00,54.1,50.0,29.68,NNW,340,3.5,3.5,86,0.04,CLR,,0.10,WeatherDisplay:10.37,2015-03-27 03:21:00,
2015-03-26 23:26:00,53.6,49.5,29.68,NNW,336,2.0,2.0,86,0.04,CLR,,0.10,WeatherDisplay:10.37,2015-03-27 03:26:00,
2015-03-26 23:31:00,53.3,49.2,29.70,NNE,14,6.9,6.9,86,0.04,CLR,,0.10,WeatherDisplay:10.37,2015-03-27 03:31:00,
2015-03-26 23:36:00,52.9,49.1,29.70,North,355,5.0,5.0,87,0.05,RA,,0.11,WeatherDisplay:10.37,2015-03-27 03:36:00,
2015-03-26 23:41:00,52.5,48.7,29.70,North,10,6.9,6.9,87,0.05,RA,,0.11,WeatherDisplay:10.37,2015-03-27 03:41:00,
2015-03-26 23:46:00,52.0,48.3,29.71,North,350,3.5,3.5,87,0.06,RA,,0.12,WeatherDisplay:10.37,2015-03-27 03:46:00,
2015-03-26 23:51:00,51.9,48.5,29.71,North,355,7.0,7.0,88,0.06,RA,,0.12,WeatherDisplay:10.37,2015-03-27 03:51:00,